• En España
  • Lista de países
  • Para 7 días
  • Temperatura del agua
  • Mapa Satelital
  • El tiempo en el mapa
  • Informadores
  • user-avatar
    Iniciar sesión

    Tiempo cada hora Kitzbuel

    Hoy, 23 Junio, Sábado

    Tiempo Temperatura Precipitaciones Viento Presión Humedad
    00:00 +6°C° 0 mm 2 mps 681 mmHg 94%
    01:00 +5°C° 0 mm 2 mps 681 mmHg 94%
    02:00 +5°C° 0 mm 2 mps 681 mmHg 94%
    03:00 +6°C° 0 mm 1 mps 681 mmHg 95%
    04:00 +5°C° 0 mm 1 mps 681 mmHg 95%
    05:00 +7°C° 0 mm 1 mps 681 mmHg 90%
    06:00 +8°C° 0 mm 1 mps 681 mmHg 84%
    07:00 +10°C° 0 mm 1 mps 681 mmHg 79%
    08:00 +12°C° 0 mm 1 mps 682 mmHg 69%
    09:00 +13°C° 0 mm 2 mps 682 mmHg 59%
    10:00 +15°C° 0 mm 2 mps 682 mmHg 49%
    11:00 +16°C° 0 mm 2 mps 682 mmHg 47%
    12:00 +17°C° 0 mm 3 mps 682 mmHg 45%
    13:00 +17°C° 0 mm 3 mps 682 mmHg 43%
    14:00 +17°C° 0 mm 3 mps 681 mmHg 46%
    15:00 +17°C° 0 mm 3 mps 681 mmHg 49%
    16:00 +16°C° 0 mm 3 mps 681 mmHg 52%
    17:00 +14°C° 0,1 mm 3 mps 680 mmHg 61%
    18:00 +14°C° 0,1 mm 2 mps 680 mmHg 70%
    19:00 +13°C° 0,1 mm 2 mps 680 mmHg 78%
    20:00 +10°C° 0 mm 2 mps 680 mmHg 83%
    21:00 +10°C° 0 mm 1 mps 681 mmHg 88%
    22:00 +9°C° 0 mm 1 mps 681 mmHg 93%
    23:00 +9°C° 0 mm 1 mps 681 mmHg 93%

    Mañana, 24 Junio, Domingo

    Tiempo Temperatura Precipitaciones Viento Presión Humedad
    00:00 +9°C° 0 mm 1 mps 681 mmHg 93%
    01:00 +9°C° 0 mm 1 mps 681 mmHg 94%
    02:00 +9°C° 0 mm 1 mps 680 mmHg 94%
    03:00 +8°C° 0 mm 1 mps 680 mmHg 94%
    04:00 +8°C° 0 mm 1 mps 680 mmHg 94%
    05:00 +9°C° 0,1 mm 1 mps 680 mmHg 90%
    06:00 +10°C° 0,1 mm 1 mps 680 mmHg 87%
    07:00 +11°C° 0,1 mm 1 mps 680 mmHg 83%
    08:00 +12°C° 0,1 mm 1 mps 680 mmHg 79%
    09:00 +13°C° 0,1 mm 1 mps 680 mmHg 75%
    10:00 +14°C° 0,1 mm 1 mps 680 mmHg 70%
    11:00 +15°C° 0,1 mm 2 mps 680 mmHg 68%
    12:00 +15°C° 0,1 mm 2 mps 680 mmHg 65%
    13:00 +16°C° 0,1 mm 2 mps 680 mmHg 62%
    14:00 +16°C° 0,2 mm 2 mps 680 mmHg 64%
    15:00 +16°C° 0,2 mm 2 mps 680 mmHg 65%
    16:00 +16°C° 0,2 mm 2 mps 680 mmHg 67%
    17:00 +15°C° 0,2 mm 2 mps 680 mmHg 73%
    18:00 +14°C° 0,2 mm 1 mps 679 mmHg 79%
    19:00 +14°C° 0,2 mm 1 mps 679 mmHg 84%
    20:00 +12°C° 0,1 mm 1 mps 679 mmHg 88%
    21:00 +11°C° 0,1 mm 1 mps 679 mmHg 92%
    22:00 +9°C° 0,1 mm 1 mps 680 mmHg 96%
    23:00 +9°C° 0 mm 1 mps 679 mmHg 96%

    Pasado mañana, 25 Junio, Lunes

    Tiempo Temperatura Precipitaciones Viento Presión Humedad
    00:00 +8°C° 0 mm 1 mps 679 mmHg 96%
    01:00 +8°C° 0 mm 1 mps 679 mmHg 95%
    02:00 +8°C° 0 mm 1 mps 679 mmHg 95%
    03:00 +7°C° 0 mm 1 mps 679 mmHg 95%
    04:00 +6°C° 0 mm 2 mps 679 mmHg 94%
    05:00 +9°C° 0 mm 1 mps 680 mmHg 90%
    06:00 +10°C° 0 mm 1 mps 680 mmHg 86%
    07:00 +12°C° 0 mm 1 mps 680 mmHg 82%
    08:00 +13°C° 0,1 mm 1 mps 681 mmHg 77%
    09:00 +15°C° 0,1 mm 1 mps 681 mmHg 73%
    10:00 +16°C° 0,1 mm 2 mps 681 mmHg 68%
    11:00 +17°C° 0,2 mm 2 mps 681 mmHg 66%
    12:00 +18°C° 0,2 mm 2 mps 681 mmHg 63%
    13:00 +18°C° 0,2 mm 2 mps 681 mmHg 61%
    14:00 +18°C° 0,3 mm 2 mps 681 mmHg 63%
    15:00 +18°C° 0,3 mm 2 mps 681 mmHg 65%
    16:00 +18°C° 0,3 mm 2 mps 681 mmHg 67%
    17:00 +17°C° 0,2 mm 2 mps 681 mmHg 73%
    18:00 +16°C° 0,2 mm 2 mps 681 mmHg 79%
    19:00 +15°C° 0,2 mm 2 mps 681 mmHg 84%
    20:00 +13°C° 0,1 mm 1 mps 681 mmHg 88%
    21:00 +12°C° 0,1 mm 1 mps 682 mmHg 92%
    22:00 +11°C° 0,1 mm 1 mps 682 mmHg 95%
    23:00 +10°C° 0 mm 1 mps 682 mmHg 96%

    26 Junio, Martes

    Tiempo Temperatura Precipitaciones Viento Presión Humedad
    00:00 +10°C° 0 mm 1 mps 682 mmHg 96%
    01:00 +9°C° 0 mm 1 mps 681 mmHg 96%
    02:00 +9°C° 0 mm 1 mps 681 mmHg 95%
    03:00 +9°C° 0 mm 1 mps 681 mmHg 95%
    04:00 +8°C° 0 mm 1 mps 681 mmHg 95%
    05:00 +10°C° 0 mm 1 mps 681 mmHg 90%
    06:00 +12°C° 0 mm 1 mps 682 mmHg 84%
    07:00 +14°C° 0 mm 1 mps 682 mmHg 79%
    08:00 +15°C° 0 mm 1 mps 682 mmHg 70%
    09:00 +18°C° 0 mm 1 mps 683 mmHg 61%
    10:00 +19°C° 0 mm 2 mps 683 mmHg 52%
    11:00 +20°C° 0 mm 2 mps 683 mmHg 51%
    12:00 +20°C° 0 mm 2 mps 683 mmHg 49%
    13:00 +21°C° 0 mm 3 mps 683 mmHg 48%
    14:00 +21°C° 0 mm 3 mps 683 mmHg 50%
    15:00 +21°C° 0 mm 3 mps 682 mmHg 51%
    16:00 +21°C° 0 mm 3 mps 682 mmHg 53%
    17:00 +20°C° 0 mm 2 mps 682 mmHg 61%
    18:00 +19°C° 0 mm 2 mps 682 mmHg 69%
    19:00 +18°C° 0 mm 1 mps 682 mmHg 77%
    20:00 +16°C° 0 mm 1 mps 682 mmHg 83%
    21:00 +14°C° 0 mm 1 mps 682 mmHg 89%
    22:00 +12°C° 0 mm 1 mps 682 mmHg 94%
    23:00 +12°C° 0 mm 1 mps 682 mmHg 95%

    27 Junio, Miércoles

    Tiempo Temperatura Precipitaciones Viento Presión Humedad
    00:00 +11°C° 0 mm 1 mps 682 mmHg 96%
    01:00 +11°C° 0 mm 1 mps 681 mmHg 96%
    02:00 +10°C° 0 mm 1 mps 681 mmHg 96%
    03:00 +10°C° 0 mm 1 mps 681 mmHg 96%
    04:00 +10°C° 0 mm 1 mps 681 mmHg 96%
    05:00 +12°C° 0 mm 1 mps 682 mmHg 89%
    06:00 +14°C° 0 mm 1 mps 682 mmHg 83%
    07:00 +16°C° 0 mm 1 mps 683 mmHg 77%
    08:00 +19°C° 0 mm 1 mps 683 mmHg 66%
    09:00 +20°C° 0 mm 2 mps 683 mmHg 56%
    10:00 +21°C° 0 mm 2 mps 683 mmHg 46%
    11:00 +23°C° 0 mm 2 mps 683 mmHg 44%
    12:00 +24°C° 0 mm 2 mps 683 mmHg 43%
    13:00 +25°C° 0 mm 3 mps 683 mmHg 41%
    14:00 +25°C° 0 mm 3 mps 683 mmHg 43%
    15:00 +24°C° 0 mm 3 mps 683 mmHg 45%
    16:00 +24°C° 0 mm 3 mps 682 mmHg 48%
    17:00 +23°C° 0 mm 2 mps 682 mmHg 56%
    18:00 +21°C° 0 mm 2 mps 682 mmHg 64%
    19:00 +19°C° 0 mm 2 mps 682 mmHg 72%
    20:00 +18°C° 0 mm 1 mps 682 mmHg 79%
    21:00 +15°C° 0 mm 1 mps 682 mmHg 85%
    22:00 +14°C° 0 mm 1 mps 682 mmHg 91%
    23:00 +13°C° 0 mm 1 mps 682 mmHg 91%

    28 Junio, Jueves

    Tiempo Temperatura Precipitaciones Viento Presión Humedad
    00:00 +13°C° 0 mm 1 mps 682 mmHg 91%
    01:00 +12°C° 0 mm 1 mps 681 mmHg 91%
    02:00 +12°C° 0 mm 1 mps 681 mmHg 91%
    03:00 +12°C° 0 mm 1 mps 681 mmHg 91%
    04:00 +11°C° 0 mm 1 mps 681 mmHg 90%
    05:00 +13°C° 0 mm 1 mps 681 mmHg 84%
    06:00 +15°C° 0 mm 1 mps 682 mmHg 77%
    07:00 +18°C° 0 mm 1 mps 682 mmHg 71%
    08:00 +20°C° 0 mm 1 mps 682 mmHg 64%
    09:00 +21°C° 0 mm 2 mps 683 mmHg 57%
    10:00 +24°C° 0 mm 2 mps 683 mmHg 51%
    11:00 +25°C° 0 mm 2 mps 683 mmHg 49%
    12:00 +25°C° 0 mm 2 mps 683 mmHg 47%
    13:00 +26°C° 0 mm 3 mps 683 mmHg 45%
    14:00 +26°C° 0 mm 3 mps 682 mmHg 47%
    15:00 +25°C° 0 mm 3 mps 682 mmHg 50%
    16:00 +25°C° 0 mm 3 mps 682 mmHg 52%
    17:00 +24°C° 0,2 mm 2 mps 682 mmHg 60%
    18:00 +21°C° 0,2 mm 2 mps 682 mmHg 69%
    19:00 +20°C° 0,2 mm 2 mps 682 mmHg 77%
    20:00 +18°C° 0 mm 2 mps 681 mmHg 81%
    21:00 +17°C° 0 mm 2 mps 681 mmHg 85%
    22:00 +15°C° 0 mm 2 mps 681 mmHg 90%
    23:00 +14°C° 0 mm 2 mps 681 mmHg 90%
    Mostrar más